Time,TemperatureF,DewpointF,PressureIn,WindDirection,WindDirectionDegrees,WindSpeedMPH,WindSpeedGustMPH,Humidity,HourlyPrecipIn,Conditions,Clouds,dailyrainin,SoftwareType,DateUTC
2013-12-06 00:00:00,1.4,-3.1,29.67,SSW,202,0.0,0.0,81,0.00,,,-99.99,VWS V12.07,2013-12-06 06:00:00,
2013-12-06 00:05:00,1.2,-3.3,29.67,SSW,202,0.0,0.0,81,0.00,,,-99.99,VWS V12.07,2013-12-06 06:05:00,
2013-12-06 00:10:00,1.2,-3.3,29.67,SSW,202,0.0,0.0,81,0.00,,,-99.99,VWS V12.07,2013-12-06 06:10:00,
2013-12-06 00:15:00,1.2,-3.3,29.67,SSW,202,0.0,0.0,81,0.00,,,-99.99,VWS V12.07,2013-12-06 06:15:00,
2013-12-06 00:20:00,1.0,-3.5,29.67,SSW,202,0.0,0.0,81,0.00,,,-99.99,VWS V12.07,2013-12-06 06:20:00,
2013-12-06 00:25:00,0.6,-3.8,29.68,SSW,202,0.0,0.0,81,0.00,,,-99.99,VWS V12.07,2013-12-06 06:25:00,
2013-12-06 00:30:00,0.5,-3.9,29.68,SSW,202,0.0,0.0,81,0.00,,,-99.99,VWS V12.07,2013-12-06 06:30:00,
2013-12-06 00:35:00,0.5,-3.9,29.69,SSW,202,0.0,0.0,81,0.00,,,-99.99,VWS V12.07,2013-12-06 06:35:00,
2013-12-06 00:40:00,0.3,-4.1,29.68,SSW,202,0.0,0.0,81,0.00,,,-99.99,VWS V12.07,2013-12-06 06:40:00,
2013-12-06 00:45:00,0.3,-4.1,29.68,SSW,202,0.0,0.0,81,0.00,,,-99.99,VWS V12.07,2013-12-06 06:45:00,
2013-12-06 00:50:00,0.1,-4.3,29.69,SSW,202,0.0,0.0,81,0.00,,,-99.99,VWS V12.07,2013-12-06 06:50:00,
2013-12-06 00:55:00,0.1,-4.3,29.68,SSW,202,0.0,0.0,81,0.00,,,-99.99,VWS V12.07,2013-12-06 06:55:00,
2013-12-06 01:00:00,0.1,-4.3,29.69,SSW,202,0.0,0.0,81,0.00,,,-99.99,VWS V12.07,2013-12-06 07:00:00,
2013-12-06 01:05:00,0.1,-4.3,29.68,SSW,202,0.0,0.0,81,0.00,,,-99.99,VWS V12.07,2013-12-06 07:05:00,
2013-12-06 01:10:00,-0.2,-4.6,29.68,SSW,202,0.0,0.0,81,0.00,,,-99.99,VWS V12.07,2013-12-06 07:10:00,
2013-12-06 01:15:00,-0.2,-4.6,29.69,SSW,202,0.0,0.0,81,0.00,,,-99.99,VWS V12.07,2013-12-06 07:15:00,
2013-12-06 01:20:00,-0.2,-4.6,29.69,SSW,202,0.0,0.0,81,0.00,,,-99.99,VWS V12.07,2013-12-06 07:20:00,
2013-12-06 01:25:00,-0.4,-4.8,29.69,SSW,202,0.0,0.0,81,0.00,,,-99.99,VWS V12.07,2013-12-06 07:25:00,
2013-12-06 01:30:00,-0.5,-4.9,29.70,SSW,202,0.0,0.0,81,0.00,,,-99.99,VWS V12.07,2013-12-06 07:30:00,
2013-12-06 01:35:00,-0.5,-4.9,29.71,SSW,202,0.0,0.0,81,0.00,,,-99.99,VWS V12.07,2013-12-06 07:35:00,
2013-12-06 01:40:00,-0.5,-4.9,29.71,SSW,202,0.0,0.0,81,0.00,,,-99.99,VWS V12.07,2013-12-06 07:40:00,
2013-12-06 01:45:00,-0.5,-4.9,29.72,SSW,202,0.0,0.0,81,0.00,,,-99.99,VWS V12.07,2013-12-06 07:45:00,
2013-12-06 01:50:00,-0.5,-4.9,29.72,SSW,202,0.0,0.0,81,0.00,,,-99.99,VWS V12.07,2013-12-06 07:50:00,
2013-12-06 07:05:00,-7.2,-11.5,29.77,SSW,202,0.0,0.0,81,0.00,,,-99.99,VWS V12.07,2013-12-06 13:05:00,
2013-12-06 07:10:00,-7.2,-11.5,29.77,SSW,202,0.0,0.0,81,0.00,,,-99.99,VWS V12.07,2013-12-06 13:10:00,
2013-12-06 07:15:00,-7.4,-11.7,29.78,SSW,202,0.0,0.0,81,0.00,,,-99.99,VWS V12.07,2013-12-06 13:15:00,
2013-12-06 07:20:00,-7.4,-11.7,29.78,SSW,202,0.0,0.0,81,0.00,,,-99.99,VWS V12.07,2013-12-06 13:20:00,
2013-12-06 07:25:00,-7.4,-11.7,29.78,SSW,202,0.0,0.0,81,0.00,,,-99.99,VWS V12.07,2013-12-06 13:25:00,
2013-12-06 07:30:00,-7.4,-11.7,29.79,SSW,202,0.0,0.0,81,0.00,,,-99.99,VWS V12.07,2013-12-06 13:30:00,
2013-12-06 07:35:00,-7.6,-11.9,29.79,SSW,202,0.0,0.0,81,0.00,,,-99.99,VWS V12.07,2013-12-06 13:35:00,
2013-12-06 07:40:00,-7.7,-12.0,29.79,SSW,202,0.0,0.0,81,0.00,,,-99.99,VWS V12.07,2013-12-06 13:40:00,
2013-12-06 07:45:00,-7.7,-12.0,29.79,SSW,202,0.0,0.0,81,0.00,,,-99.99,VWS V12.07,2013-12-06 13:45:00,
2013-12-06 07:50:00,-7.7,-12.0,29.80,SSW,202,0.0,0.0,81,0.00,,,-99.99,VWS V12.07,2013-12-06 13:50:00,
2013-12-06 07:55:00,-7.7,-12.0,29.79,SSW,202,0.0,0.0,81,0.00,,,-99.99,VWS V12.07,2013-12-06 13:55:00,
2013-12-06 08:00:00,-7.7,-12.0,29.80,SSW,202,0.0,0.0,81,0.00,,,-99.99,VWS V12.07,2013-12-06 14:00:00,
2013-12-06 08:05:00,-7.7,-12.0,29.80,SSW,202,0.0,0.0,81,0.00,,,-99.99,VWS V12.07,2013-12-06 14:05:00,
2013-12-06 08:10:00,-7.7,-12.0,29.80,SSW,202,0.0,0.0,81,0.00,,,-99.99,VWS V12.07,2013-12-06 14:10:00,
2013-12-06 08:15:00,-7.4,-11.7,29.80,SSW,202,0.0,0.0,81,0.00,,,-99.99,VWS V12.07,2013-12-06 14:15:00,
2013-12-06 08:20:00,-7.4,-11.7,29.80,SSW,202,0.0,0.0,81,0.00,,,-99.99,VWS V12.07,2013-12-06 14:20:00,
2013-12-06 08:25:00,-7.4,-11.7,29.80,SSW,202,0.0,0.0,81,0.00,,,-99.99,VWS V12.07,2013-12-06 14:25:00,
2013-12-06 08:30:00,-7.4,-11.7,29.80,SSW,202,0.0,0.0,81,0.00,,,-99.99,VWS V12.07,2013-12-06 14:30:00,
2013-12-06 08:35:00,-7.2,-11.5,29.81,SSW,202,0.0,0.0,81,0.00,,,-99.99,VWS V12.07,2013-12-06 14:35:00,
2013-12-06 08:40:00,-7.0,-11.3,29.81,SSW,202,0.0,0.0,81,0.00,,,-99.99,VWS V12.07,2013-12-06 14:40:00,
2013-12-06 08:45:00,-6.8,-11.1,29.81,SSW,202,0.0,0.0,81,0.00,,,-99.99,VWS V12.07,2013-12-06 14:45:00,
2013-12-06 08:50:00,-6.7,-11.0,29.81,SSW,202,0.0,0.0,81,0.00,,,-99.99,VWS V12.07,2013-12-06 14:50:00,
2013-12-06 08:55:00,-6.5,-10.8,29.81,SSW,202,0.0,0.0,81,0.00,,,-99.99,VWS V12.07,2013-12-06 14:55:00,
2013-12-06 09:00:00,-6.3,-10.6,29.82,SSW,202,0.0,0.0,81,0.00,,,-99.99,VWS V12.07,2013-12-06 15:00:00,
2013-12-06 09:05:00,-6.1,-10.4,29.82,SSW,202,0.0,0.0,81,0.00,,,-99.99,VWS V12.07,2013-12-06 15:05:00,
2013-12-06 09:10:00,-5.9,-10.2,29.82,SSW,202,0.0,0.0,81,0.00,,,-99.99,VWS V12.07,2013-12-06 15:10:00,
2013-12-06 09:15:00,-5.8,-10.1,29.82,SSW,202,0.0,0.0,81,0.00,,,-99.99,VWS V12.07,2013-12-06 15:15:00,
2013-12-06 09:20:00,-5.4,-9.7,29.82,SSW,202,0.0,0.0,81,0.00,,,-99.99,VWS V12.07,2013-12-06 15:20:00,
2013-12-06 09:25:00,-5.2,-9.5,29.83,SSW,202,0.0,0.0,81,0.00,,,-99.99,VWS V12.07,2013-12-06 15:25:00,
2013-12-06 09:35:00,-4.9,-9.2,29.83,SSW,202,0.0,0.0,81,0.00,,,-99.99,VWS V12.07,2013-12-06 15:35:00,
2013-12-06 09:40:00,-4.7,-9.0,29.83,SSW,202,0.0,0.0,81,0.00,,,-99.99,VWS V12.07,2013-12-06 15:40:00,
2013-12-06 09:45:00,-4.1,-8.4,29.83,SSW,202,0.0,0.0,81,0.00,,,-99.99,VWS V12.07,2013-12-06 15:45:00,
2013-12-06 09:50:00,-4.1,-8.4,29.83,SSW,202,0.0,0.0,81,0.00,,,-99.99,VWS V12.07,2013-12-06 15:50:00,
2013-12-06 09:55:00,-3.8,-8.1,29.83,SSW,202,0.0,0.0,81,0.00,,,-99.99,VWS V12.07,2013-12-06 15:55:00,
2013-12-06 10:00:00,-3.4,-7.8,29.83,SSW,202,0.0,0.0,81,0.00,,,-99.99,VWS V12.07,2013-12-06 16:00:00,
2013-12-06 10:05:00,-3.2,-7.3,29.83,SSW,202,0.0,0.0,82,0.00,,,-99.99,VWS V12.07,2013-12-06 16:05:00,
2013-12-06 10:10:00,-2.9,-7.0,29.83,SSW,202,0.0,0.0,82,0.00,,,-99.99,VWS V12.07,2013-12-06 16:10:00,
2013-12-06 10:15:00,-2.5,-6.6,29.83,SSW,202,0.0,0.0,82,0.00,,,-99.99,VWS V12.07,2013-12-06 16:15:00,
2013-12-06 10:20:00,-2.3,-6.4,29.84,SSW,202,0.0,0.0,82,0.00,,,-99.99,VWS V12.07,2013-12-06 16:20:00,
2013-12-06 10:25:00,-2.0,-6.1,29.83,SSW,202,0.0,0.0,82,0.00,,,-99.99,VWS V12.07,2013-12-06 16:25:00,
2013-12-06 10:30:00,-1.4,-5.6,29.84,SSW,202,0.0,0.0,82,0.00,,,-99.99,VWS V12.07,2013-12-06 16:30:00,
2013-12-06 10:35:00,-1.1,-5.3,29.83,SSW,202,0.0,0.0,82,0.00,,,-99.99,VWS V12.07,2013-12-06 16:35:00,
2013-12-06 10:40:00,-0.7,-4.9,29.83,SSW,202,0.0,0.0,82,0.00,,,-99.99,VWS V12.07,2013-12-06 16:40:00,
2013-12-06 10:45:00,-0.2,-4.4,29.83,SSW,202,0.0,0.0,82,0.00,,,-99.99,VWS V12.07,2013-12-06 16:45:00,
2013-12-06 10:50:00,-0.2,-4.4,29.83,SSW,202,0.0,0.0,82,0.00,,,-99.99,VWS V12.07,2013-12-06 16:50:00,
2013-12-06 10:55:00,0.3,-3.9,29.83,SSW,202,0.0,0.0,82,0.00,,,-99.99,VWS V12.07,2013-12-06 16:55:00,
2013-12-06 11:00:00,0.5,-3.7,29.83,SSW,202,0.0,0.0,82,0.00,,,-99.99,VWS V12.07,2013-12-06 17:00:00,
2013-12-06 11:05:00,0.8,-3.7,29.83,SSW,202,0.0,0.0,81,0.00,,,-99.99,VWS V12.07,2013-12-06 17:05:00,
2013-12-06 11:10:00,1.2,-3.3,29.83,SSW,202,0.0,0.0,81,0.00,,,-99.99,VWS V12.07,2013-12-06 17:10:00,
2013-12-06 11:15:00,1.5,-2.7,29.83,SSW,202,0.0,0.0,82,0.00,,,-99.99,VWS V12.07,2013-12-06 17:15:00,
2013-12-06 11:20:00,1.5,-2.7,29.83,SSW,202,0.0,0.0,82,0.00,,,-99.99,VWS V12.07,2013-12-06 17:20:00,
2013-12-06 11:25:00,1.9,-2.6,29.83,SSW,202,0.0,0.0,81,0.00,,,-99.99,VWS V12.07,2013-12-06 17:25:00,
2013-12-06 11:30:00,1.9,-2.6,29.83,SSW,202,0.0,0.0,81,0.00,,,-99.99,VWS V12.07,2013-12-06 17:30:00,
2013-12-06 11:35:00,2.3,-2.2,29.83,SSW,202,0.0,0.0,81,0.00,,,-99.99,VWS V12.07,2013-12-06 17:35:00,
2013-12-06 11:40:00,2.4,-2.1,29.83,SSW,202,0.0,0.0,81,0.00,,,-99.99,VWS V12.07,2013-12-06 17:40:00,
2013-12-06 11:45:00,2.8,-1.7,29.83,SSW,202,0.0,0.0,81,0.00,,,-99.99,VWS V12.07,2013-12-06 17:45:00,
2013-12-06 11:50:00,2.8,-1.7,29.83,SSW,202,0.0,0.0,81,0.00,,,-99.99,VWS V12.07,2013-12-06 17:50:00,
2013-12-06 11:55:00,3.0,-1.5,29.83,SSW,202,0.0,0.0,81,0.00,,,-99.99,VWS V12.07,2013-12-06 17:55:00,
2013-12-06 12:00:00,3.3,-1.2,29.83,SSW,202,0.0,0.0,81,0.00,,,-99.99,VWS V12.07,2013-12-06 18:00:00,
2013-12-06 12:05:00,3.3,-1.2,29.83,SSW,202,0.0,0.0,81,0.00,,,-99.99,VWS V12.07,2013-12-06 18:05:00,
2013-12-06 12:10:00,3.5,-1.0,29.83,SSW,202,0.0,0.0,81,0.00,,,-99.99,VWS V12.07,2013-12-06 18:10:00,
2013-12-06 12:20:00,3.9,-0.6,29.83,SSW,202,0.0,0.0,81,0.00,,,-99.99,VWS V12.07,2013-12-06 18:20:00,
2013-12-06 12:25:00,3.9,-0.6,29.83,SSW,202,0.0,0.0,81,0.00,,,-99.99,VWS V12.07,2013-12-06 18:25:00,
2013-12-06 12:30:00,3.9,-0.6,29.83,SSW,202,0.0,0.0,81,0.00,,,-99.99,VWS V12.07,2013-12-06 18:30:00,
2013-12-06 12:35:00,4.1,-0.4,29.83,SSW,202,0.0,0.0,81,0.00,,,-99.99,VWS V12.07,2013-12-06 18:35:00,
2013-12-06 12:40:00,4.1,-0.7,29.83,SSW,202,0.0,0.0,80,0.00,,,-99.99,VWS V12.07,2013-12-06 18:40:00,
2013-12-06 12:45:00,4.2,-0.6,29.83,SSW,202,0.0,0.0,80,0.00,,,-99.99,VWS V12.07,2013-12-06 18:45:00,
2013-12-06 12:50:00,4.2,-0.6,29.83,SSW,202,0.0,0.0,80,0.00,,,-99.99,VWS V12.07,2013-12-06 18:50:00,
2013-12-06 12:55:00,4.6,-0.2,29.83,SSW,202,0.0,0.0,80,0.00,,,-99.99,VWS V12.07,2013-12-06 18:55:00,
2013-12-06 13:00:00,4.8,0.0,29.83,SSW,202,0.0,0.0,80,0.00,,,-99.99,VWS V12.07,2013-12-06 19:00:00,
2013-12-06 13:05:00,4.8,0.0,29.82,SSW,202,0.0,0.0,80,0.00,,,-99.99,VWS V12.07,2013-12-06 19:05:00,
2013-12-06 13:10:00,4.8,0.0,29.83,SSW,202,0.0,0.0,80,0.00,,,-99.99,VWS V12.07,2013-12-06 19:10:00,
2013-12-06 13:15:00,4.8,0.0,29.82,SSW,202,0.0,0.0,80,0.00,,,-99.99,VWS V12.07,2013-12-06 19:15:00,
2013-12-06 13:20:00,4.8,0.0,29.82,SSW,202,0.0,0.0,80,0.00,,,-99.99,VWS V12.07,2013-12-06 19:20:00,
2013-12-06 13:25:00,4.8,0.0,29.82,SSW,202,0.0,0.0,80,0.00,,,-99.99,VWS V12.07,2013-12-06 19:25:00,
2013-12-06 13:30:00,4.8,0.0,29.82,SSW,202,0.0,0.0,80,0.00,,,-99.99,VWS V12.07,2013-12-06 19:30:00,
2013-12-06 13:35:00,4.8,0.0,29.82,SSW,202,0.0,0.0,80,0.00,,,-99.99,VWS V12.07,2013-12-06 19:35:00,
2013-12-06 13:40:00,4.8,-0.3,29.82,SSW,202,0.0,0.0,79,0.00,,,-99.99,VWS V12.07,2013-12-06 19:40:00,
2013-12-06 13:45:00,4.8,-0.3,29.82,SSW,202,0.0,0.0,79,0.00,,,-99.99,VWS V12.07,2013-12-06 19:45:00,
2013-12-06 13:50:00,5.0,-0.1,29.82,SSW,202,0.0,0.0,79,0.00,,,-99.99,VWS V12.07,2013-12-06 19:50:00,
2013-12-06 13:55:00,5.0,-0.1,29.82,SSW,202,0.0,0.0,79,0.00,,,-99.99,VWS V12.07,2013-12-06 19:55:00,
2013-12-06 14:00:00,5.1,0.0,29.82,SSW,202,0.0,0.0,79,0.00,,,-99.99,VWS V12.07,2013-12-06 20:00:00,
2013-12-06 14:05:00,5.1,0.0,29.83,SSW,202,0.0,0.0,79,0.00,,,-99.99,VWS V12.07,2013-12-06 20:05:00,
2013-12-06 14:10:00,5.3,0.2,29.83,SSW,202,0.0,0.0,79,0.00,,,-99.99,VWS V12.07,2013-12-06 20:10:00,
2013-12-06 14:20:00,5.5,0.4,29.82,SSW,202,0.0,0.0,79,0.00,,,-99.99,VWS V12.07,2013-12-06 20:20:00,
2013-12-06 14:25:00,5.5,0.4,29.82,SSW,202,0.0,0.0,79,0.00,,,-99.99,VWS V12.07,2013-12-06 20:25:00,
2013-12-06 14:30:00,5.5,0.4,29.83,SSW,202,0.0,0.0,79,0.00,,,-99.99,VWS V12.07,2013-12-06 20:30:00,
2013-12-06 14:35:00,5.5,0.4,29.83,SSW,202,0.0,0.0,79,0.00,,,-99.99,VWS V12.07,2013-12-06 20:35:00,
2013-12-06 14:40:00,5.5,0.4,29.83,SSW,202,0.0,0.0,79,0.00,,,-99.99,VWS V12.07,2013-12-06 20:40:00,
2013-12-06 14:45:00,5.5,0.4,29.83,SSW,202,0.0,0.0,79,0.00,,,-99.99,VWS V12.07,2013-12-06 20:45:00,
2013-12-06 14:50:00,5.5,0.4,29.83,SSW,202,0.0,0.0,79,0.00,,,-99.99,VWS V12.07,2013-12-06 20:50:00,
2013-12-06 14:55:00,5.5,0.4,29.83,SSW,202,0.0,0.0,79,0.00,,,-99.99,VWS V12.07,2013-12-06 20:55:00,
2013-12-06 15:00:00,5.5,0.4,29.84,SSW,202,0.0,0.0,79,0.00,,,-99.99,VWS V12.07,2013-12-06 21:00:00,
2013-12-06 15:05:00,5.5,0.4,29.84,SSW,202,0.0,0.0,79,0.00,,,-99.99,VWS V12.07,2013-12-06 21:05:00,
2013-12-06 15:10:00,5.7,0.6,29.83,SSW,202,0.0,0.0,79,0.00,,,-99.99,VWS V12.07,2013-12-06 21:10:00,
2013-12-06 15:15:00,5.5,0.4,29.84,SSW,202,0.0,0.0,79,0.00,,,-99.99,VWS V12.07,2013-12-06 21:15:00,
2013-12-06 15:20:00,5.5,0.4,29.84,SSW,202,0.0,0.0,79,0.00,,,-99.99,VWS V12.07,2013-12-06 21:20:00,
2013-12-06 15:25:00,5.5,0.4,29.84,SSW,202,0.0,0.0,79,0.00,,,-99.99,VWS V12.07,2013-12-06 21:25:00,
2013-12-06 15:30:00,5.7,0.6,29.84,SSW,202,0.0,0.0,79,0.00,,,-99.99,VWS V12.07,2013-12-06 21:30:00,
2013-12-06 15:35:00,5.7,0.6,29.84,SSW,202,0.0,0.0,79,0.00,,,-99.99,VWS V12.07,2013-12-06 21:35:00,
2013-12-06 15:40:00,5.9,0.8,29.84,SSW,202,0.0,0.0,79,0.00,,,-99.99,VWS V12.07,2013-12-06 21:40:00,
2013-12-06 15:45:00,5.5,0.4,29.85,SSW,202,0.0,0.0,79,0.00,,,-99.99,VWS V12.07,2013-12-06 21:45:00,
2013-12-06 15:50:00,5.5,0.4,29.85,SSW,202,0.0,0.0,79,0.00,,,-99.99,VWS V12.07,2013-12-06 21:50:00,
2013-12-06 15:55:00,5.3,0.2,29.85,SSW,202,0.0,0.0,79,0.00,,,-99.99,VWS V12.07,2013-12-06 21:55:00,
2013-12-06 16:00:00,4.8,-0.3,29.86,SSW,202,0.0,0.0,79,0.00,,,-99.99,VWS V12.07,2013-12-06 22:00:00,
2013-12-06 16:05:00,4.6,-0.5,29.86,SSW,202,0.0,0.0,79,0.00,,,-99.99,VWS V12.07,2013-12-06 22:05:00,
2013-12-06 16:10:00,4.4,-0.7,29.86,SSW,202,0.0,0.0,79,0.00,,,-99.99,VWS V12.07,2013-12-06 22:10:00,
2013-12-06 16:15:00,3.9,-1.1,29.85,SSW,202,0.0,0.0,79,0.00,,,-99.99,VWS V12.07,2013-12-06 22:15:00,
2013-12-06 16:20:00,3.7,-1.3,29.85,SSW,202,0.0,0.0,79,0.00,,,-99.99,VWS V12.07,2013-12-06 22:20:00,
2013-12-06 16:25:00,3.5,-1.8,29.85,SSW,202,0.0,0.0,78,0.00,,,-99.99,VWS V12.07,2013-12-06 22:25:00,
2013-12-06 16:30:00,3.3,-1.7,29.85,SSW,202,0.0,0.0,79,0.00,,,-99.99,VWS V12.07,2013-12-06 22:30:00,
2013-12-06 16:35:00,3.0,-2.0,29.85,SSW,202,0.0,0.0,79,0.00,,,-99.99,VWS V12.07,2013-12-06 22:35:00,
2013-12-06 16:40:00,2.8,-2.2,29.86,SSW,202,0.0,0.0,79,0.00,,,-99.99,VWS V12.07,2013-12-06 22:40:00,
2013-12-06 16:45:00,2.4,-2.6,29.86,SSW,202,0.0,0.0,79,0.00,,,-99.99,VWS V12.07,2013-12-06 22:45:00,
2013-12-06 16:50:00,2.4,-2.6,29.86,SSW,202,0.0,0.0,79,0.00,,,-99.99,VWS V12.07,2013-12-06 22:50:00,
2013-12-06 16:55:00,2.1,-2.9,29.86,SSW,202,0.0,0.0,79,0.00,,,-99.99,VWS V12.07,2013-12-06 22:55:00,
2013-12-06 17:00:00,1.9,-3.1,29.86,SSW,202,0.0,0.0,79,0.00,,,-99.99,VWS V12.07,2013-12-06 23:00:00,
2013-12-06 17:05:00,1.7,-3.3,29.87,SSW,202,0.0,0.0,79,0.00,,,-99.99,VWS V12.07,2013-12-06 23:05:00,
2013-12-06 17:10:00,1.5,-3.5,29.87,SSW,202,0.0,0.0,79,0.00,,,-99.99,VWS V12.07,2013-12-06 23:10:00,
2013-12-06 17:15:00,1.2,-3.8,29.87,SSW,202,0.0,0.0,79,0.00,,,-99.99,VWS V12.07,2013-12-06 23:15:00,
2013-12-06 17:20:00,1.0,-4.0,29.87,SSW,202,0.0,0.0,79,0.00,,,-99.99,VWS V12.07,2013-12-06 23:20:00,
2013-12-06 17:25:00,1.0,-4.0,29.87,SSW,202,0.0,0.0,79,0.00,,,-99.99,VWS V12.07,2013-12-06 23:25:00,
2013-12-06 17:30:00,0.6,-4.4,29.88,SSW,202,0.0,0.0,79,0.00,,,-99.99,VWS V12.07,2013-12-06 23:30:00,
2013-12-06 17:35:00,0.6,-4.4,29.87,SSW,202,0.0,0.0,79,0.00,,,-99.99,VWS V12.07,2013-12-06 23:35:00,
2013-12-06 17:40:00,0.5,-4.5,29.88,SSW,202,0.0,0.0,79,0.00,,,-99.99,VWS V12.07,2013-12-06 23:40:00,
2013-12-06 17:45:00,0.3,-4.7,29.88,SSW,202,0.0,0.0,79,0.00,,,-99.99,VWS V12.07,2013-12-06 23:45:00,
2013-12-06 17:50:00,0.3,-4.7,29.88,SSW,202,0.0,0.0,79,0.00,,,-99.99,VWS V12.07,2013-12-06 23:50:00,
2013-12-06 17:55:00,0.3,-4.7,29.88,SSW,202,0.0,0.0,79,0.00,,,-99.99,VWS V12.07,2013-12-06 23:55:00,
2013-12-06 18:00:00,0.1,-4.8,29.88,SSW,202,0.0,0.0,79,0.00,,,-99.99,VWS V12.07,2013-12-07 00:00:00,
2013-12-06 18:05:00,0.1,-4.8,29.88,SSW,202,0.0,0.0,79,0.00,,,-99.99,VWS V12.07,2013-12-07 00:05:00,
2013-12-06 18:10:00,0.1,-4.8,29.88,SSW,202,0.0,0.0,79,0.00,,,-99.99,VWS V12.07,2013-12-07 00:10:00,
2013-12-06 18:15:00,-0.2,-5.2,29.88,SSW,202,0.0,0.0,79,0.00,,,-99.99,VWS V12.07,2013-12-07 00:15:00,
2013-12-06 18:20:00,-0.2,-4.9,29.89,SSW,202,0.0,0.0,80,0.00,,,-99.99,VWS V12.07,2013-12-07 00:20:00,
2013-12-06 18:25:00,-0.2,-4.9,29.89,SSW,202,0.0,0.0,80,0.00,,,-99.99,VWS V12.07,2013-12-07 00:25:00,
2013-12-06 18:30:00,-0.2,-4.9,29.89,SSW,202,0.0,0.0,80,0.00,,,-99.99,VWS V12.07,2013-12-07 00:30:00,
2013-12-06 18:35:00,-0.5,-5.2,29.89,SSW,202,0.0,0.0,80,0.00,,,-99.99,VWS V12.07,2013-12-07 00:35:00,
2013-12-06 18:40:00,-0.5,-5.2,29.89,SSW,202,0.0,0.0,80,0.00,,,-99.99,VWS V12.07,2013-12-07 00:40:00,
2013-12-06 18:45:00,-0.5,-5.2,29.89,SSW,202,0.0,0.0,80,0.00,,,-99.99,VWS V12.07,2013-12-07 00:45:00,
2013-12-06 18:50:00,-0.5,-5.2,29.90,SSW,202,0.0,0.0,80,0.00,,,-99.99,VWS V12.07,2013-12-07 00:50:00,
2013-12-06 18:55:00,-0.5,-5.2,29.90,SSW,202,0.0,0.0,80,0.00,,,-99.99,VWS V12.07,2013-12-07 00:55:00,
2013-12-06 19:00:00,-0.5,-5.2,29.90,SSW,202,0.0,0.0,80,0.00,,,-99.99,VWS V12.07,2013-12-07 01:00:00,
2013-12-06 19:10:00,-0.5,-5.2,29.90,SSW,202,0.0,0.0,80,0.00,,,-99.99,VWS V12.07,2013-12-07 01:10:00,
2013-12-06 19:15:00,-0.7,-5.4,29.90,SSW,202,0.0,0.0,80,0.00,,,-99.99,VWS V12.07,2013-12-07 01:15:00,
2013-12-06 19:20:00,-0.5,-5.2,29.90,SSW,202,0.0,0.0,80,0.00,,,-99.99,VWS V12.07,2013-12-07 01:20:00,
2013-12-06 19:25:00,-0.5,-5.2,29.90,SSW,202,0.0,0.0,80,0.00,,,-99.99,VWS V12.07,2013-12-07 01:25:00,
2013-12-06 19:30:00,-0.5,-5.2,29.90,SSW,202,0.0,0.0,80,0.00,,,-99.99,VWS V12.07,2013-12-07 01:30:00,
2013-12-06 19:35:00,-0.5,-5.2,29.91,SSW,202,0.0,0.0,80,0.00,,,-99.99,VWS V12.07,2013-12-07 01:35:00,
2013-12-06 19:40:00,-0.5,-5.2,29.91,SSW,202,0.0,0.0,80,0.00,,,-99.99,VWS V12.07,2013-12-07 01:40:00,
2013-12-06 19:45:00,-0.5,-5.2,29.91,SSW,202,0.0,0.0,80,0.00,,,-99.99,VWS V12.07,2013-12-07 01:45:00,
2013-12-06 19:50:00,-0.5,-5.2,29.91,SSW,202,0.0,0.0,80,0.00,,,-99.99,VWS V12.07,2013-12-07 01:50:00,
2013-12-06 19:55:00,-0.5,-5.2,29.91,SSW,202,0.0,0.0,80,0.00,,,-99.99,VWS V12.07,2013-12-07 01:55:00,
2013-12-06 20:00:00,-0.5,-5.2,29.92,SSW,202,0.0,0.0,80,0.00,,,-99.99,VWS V12.07,2013-12-07 02:00:00,
2013-12-06 20:05:00,-0.5,-5.2,29.91,SSW,202,0.0,0.0,80,0.00,,,-99.99,VWS V12.07,2013-12-07 02:05:00,
2013-12-06 20:10:00,-0.5,-5.2,29.91,SSW,202,0.0,0.0,80,0.00,,,-99.99,VWS V12.07,2013-12-07 02:10:00,
2013-12-06 20:15:00,-0.5,-5.2,29.91,SSW,202,0.0,0.0,80,0.00,,,-99.99,VWS V12.07,2013-12-07 02:15:00,
2013-12-06 20:20:00,-0.5,-5.2,29.91,SSW,202,0.0,0.0,80,0.00,,,-99.99,VWS V12.07,2013-12-07 02:20:00,
2013-12-06 20:25:00,-0.5,-5.2,29.91,SSW,202,0.0,0.0,80,0.00,,,-99.99,VWS V12.07,2013-12-07 02:25:00,
2013-12-06 20:30:00,-0.5,-5.2,29.91,SSW,202,0.0,0.0,80,0.00,,,-99.99,VWS V12.07,2013-12-07 02:30:00,
2013-12-06 20:35:00,-0.5,-5.2,29.91,SSW,202,0.0,0.0,80,0.00,,,-99.99,VWS V12.07,2013-12-07 02:35:00,
2013-12-06 20:40:00,-0.5,-5.2,29.92,SSW,202,0.0,0.0,80,0.00,,,-99.99,VWS V12.07,2013-12-07 02:40:00,
2013-12-06 20:45:00,-0.5,-5.2,29.92,SSW,202,0.0,0.0,80,0.00,,,-99.99,VWS V12.07,2013-12-07 02:45:00,
2013-12-06 20:50:00,-0.7,-5.4,29.92,SSW,202,0.0,0.0,80,0.00,,,-99.99,VWS V12.07,2013-12-07 02:50:00,
2013-12-06 20:55:00,-0.7,-5.4,29.92,SSW,202,0.0,0.0,80,0.00,,,-99.99,VWS V12.07,2013-12-07 02:55:00,
2013-12-06 21:00:00,-0.7,-5.4,29.92,SSW,202,0.0,0.0,80,0.00,,,-99.99,VWS V12.07,2013-12-07 03:00:00,
2013-12-06 21:05:00,-0.7,-5.4,29.92,SSW,202,0.0,0.0,80,0.00,,,-99.99,VWS V12.07,2013-12-07 03:05:00,
2013-12-06 21:10:00,-0.7,-5.4,29.92,SSW,202,0.0,0.0,80,0.00,,,-99.99,VWS V12.07,2013-12-07 03:10:00,
2013-12-06 21:15:00,-0.9,-5.6,29.92,SSW,202,0.0,0.0,80,0.00,,,-99.99,VWS V12.07,2013-12-07 03:15:00,
2013-12-06 21:20:00,-1.1,-5.8,29.92,SSW,202,0.0,0.0,80,0.00,,,-99.99,VWS V12.07,2013-12-07 03:20:00,
2013-12-06 21:25:00,-1.1,-5.8,29.93,SSW,202,0.0,0.0,80,0.00,,,-99.99,VWS V12.07,2013-12-07 03:25:00,
2013-12-06 21:30:00,-1.3,-6.0,29.93,SSW,202,0.0,0.0,80,0.00,,,-99.99,VWS V12.07,2013-12-07 03:30:00,
2013-12-06 21:35:00,-1.3,-6.0,29.93,SSW,202,0.0,0.0,80,0.00,,,-99.99,VWS V12.07,2013-12-07 03:35:00,
2013-12-06 21:40:00,-1.3,-6.0,29.93,SSW,202,0.0,0.0,80,0.00,,,-99.99,VWS V12.07,2013-12-07 03:40:00,
2013-12-06 21:45:00,-1.4,-6.1,29.93,SSW,202,0.0,0.0,80,0.00,,,-99.99,VWS V12.07,2013-12-07 03:45:00,
2013-12-06 21:50:00,-1.4,-6.1,29.93,SSW,202,0.0,0.0,80,0.00,,,-99.99,VWS V12.07,2013-12-07 03:50:00,
2013-12-06 21:55:00,-1.4,-6.1,29.93,SSW,202,0.0,0.0,80,0.00,,,-99.99,VWS V12.07,2013-12-07 03:55:00,
2013-12-06 22:00:00,-1.4,-6.1,29.93,SSW,202,0.0,0.0,80,0.00,,,-99.99,VWS V12.07,2013-12-07 04:00:00,
2013-12-06 22:05:00,-1.4,-6.1,29.93,SSW,202,0.0,0.0,80,0.00,,,-99.99,VWS V12.07,2013-12-07 04:05:00,
2013-12-06 22:10:00,-1.4,-6.1,29.93,SSW,202,0.0,0.0,80,0.00,,,-99.99,VWS V12.07,2013-12-07 04:10:00,
2013-12-06 22:15:00,-1.3,-5.7,29.94,SSW,202,0.0,0.0,81,0.00,,,-99.99,VWS V12.07,2013-12-07 04:15:00,
2013-12-06 22:20:00,-1.4,-6.1,29.94,SSW,202,0.0,0.0,80,0.00,,,-99.99,VWS V12.07,2013-12-07 04:20:00,
2013-12-06 22:25:00,-1.3,-6.0,29.94,SSW,202,0.0,0.0,80,0.00,,,-99.99,VWS V12.07,2013-12-07 04:25:00,
2013-12-06 22:30:00,-1.4,-6.1,29.94,SSW,202,0.0,0.0,80,0.00,,,-99.99,VWS V12.07,2013-12-07 04:30:00,
2013-12-06 22:35:00,-1.4,-6.1,29.94,SSW,202,0.0,0.0,80,0.00,,,-99.99,VWS V12.07,2013-12-07 04:35:00,
2013-12-06 22:40:00,-1.4,-6.1,29.94,SSW,202,0.0,0.0,80,0.00,,,-99.99,VWS V12.07,2013-12-07 04:40:00,
2013-12-06 22:45:00,-1.4,-6.1,29.94,SSW,202,0.0,0.0,80,0.00,,,-99.99,VWS V12.07,2013-12-07 04:45:00,
2013-12-06 22:50:00,-1.6,-6.2,29.94,SSW,202,0.0,0.0,80,0.00,,,-99.99,VWS V12.07,2013-12-07 04:50:00,
2013-12-06 22:55:00,-1.6,-6.2,29.95,SSW,202,0.0,0.0,80,0.00,,,-99.99,VWS V12.07,2013-12-07 04:55:00,
2013-12-06 23:00:00,-1.6,-6.2,29.95,SSW,202,0.0,0.0,80,0.00,,,-99.99,VWS V12.07,2013-12-07 05:00:00,
2013-12-06 23:05:00,-1.6,-6.2,29.95,SSW,202,0.0,0.0,80,0.00,,,-99.99,VWS V12.07,2013-12-07 05:05:00,
2013-12-06 23:10:00,-1.8,-6.4,29.95,SSW,202,0.0,0.0,80,0.00,,,-99.99,VWS V12.07,2013-12-07 05:10:00,
2013-12-06 23:15:00,-1.8,-6.4,29.95,SSW,202,0.0,0.0,80,0.00,,,-99.99,VWS V12.07,2013-12-07 05:15:00,
2013-12-06 23:20:00,-2.0,-6.6,29.95,SSW,202,0.0,0.0,80,0.00,,,-99.99,VWS V12.07,2013-12-07 05:20:00,
2013-12-06 23:25:00,-2.0,-6.6,29.96,SSW,202,0.0,0.0,80,0.00,,,-99.99,VWS V12.07,2013-12-07 05:25:00,
2013-12-06 23:30:00,-2.2,-6.8,29.96,SSW,202,0.0,0.0,80,0.00,,,-99.99,VWS V12.07,2013-12-07 05:30:00,
2013-12-06 23:40:00,-2.3,-6.9,29.96,SSW,202,0.0,0.0,80,0.00,,,-99.99,VWS V12.07,2013-12-07 05:40:00,
2013-12-06 23:45:00,-2.3,-6.9,29.96,SSW,202,0.0,0.0,80,0.00,,,-99.99,VWS V12.07,2013-12-07 05:45:00,
2013-12-06 23:50:00,-2.3,-6.9,29.96,SSW,202,0.0,0.0,80,0.00,,,-99.99,VWS V12.07,2013-12-07 05:50:00,
2013-12-06 23:55:00,-2.3,-6.9,29.96,SSW,202,0.0,0.0,80,0.00,,,-99.99,VWS V12.07,2013-12-07 05:55:00,